Terug naar catalogus

FENGYUN 1C DEB

ActiefSSO
NORAD 29918·DEBRIS·🇨🇳 China

Gelanceerd May 10, 1999 vanaf Taiyuan Satellite Launch Center

Loading…

Volgende Passages (komende 24 uur)

TLE

VersSource: Space-Track

Epoch: Sep 14, 2026, 04:53 UTC

1 29918U 99025HQ  26257.20385649  .00002365  00000-0  83715-3 0  9996
2 29918  98.8465 351.2542 0013559 222.1757 167.7043 14.35515268 17446

Volg FENGYUN 1C DEB in realtime met AllMySat

Download on the App Store